This demonstration page uses our WeatherBlox Daily Observations layout. Learn more.

Left ArrowRight Arrow

34.16533, -84.80231

Hourly Observations for August 31, 2019

Temp ( °F °C ) Dew Point ( °F °C ) Humidity (%) Winds ( mph kmh ) Pressure ( in mb ) Visibility ( mi km ) Precip ( " mm )
12:53 am 00:53 Clear 66 18.9 62 16.7 87 87 Calm 30.11 1020 10 16 0.00 0.00
1:53 am 01:53 Clear 70 21.1 62 16.7 76 76 Calm 30.10 1019 10 16 0.00 0.00
2:53 am 02:53 Clear 66 18.9 62 16.7 87 87 S 5 7 30.09 1019 10 16 0.00 0.00
3:53 am 03:53 Clear 63 17.2 61 16.1 93 93 Calm 30.09 1019 10 16 0.00 0.00
4:53 am 04:53 Clear 64 17.8 61 16.1 90 90 Calm 30.09 1019 10 16 0.00 0.00
5:53 am 05:53 Clear 62 16.7 60 15.6 93 93 Calm 30.11 1020 10 16 0.00 0.00
6:53 am 06:53 Cloudy 63 17.2 60 15.6 90 90 Calm 30.13 1020 10 16 0.00 0.00
7:53 am 07:53 Sunny 64 17.8 61 16.1 90 90 ESE 3 6 30.14 1021 10 16 0.00 0.00
8:53 am 08:53 Sunny 71 21.7 64 17.8 79 79 Calm 30.14 1021 10 16 0.00 0.00
9:53 am 09:53 Sunny 76 24.4 65 18.3 69 69 VRB 3 6 30.14 1021 10 16 0.00 0.00
10:53 am 10:53 Sunny 81 27.2 68 20 65 65 ENE 7 11 30.14 1021 10 16 0.00 0.00
11:53 am 11:53 Sunny 84 28.9 69 20.6 61 61 VRB 6 9 30.13 1020 10 16 0.00 0.00
12:53 pm 12:53 Sunny 87 30.6 67 19.4 51 51 VRB 5 7 30.11 1020 10 16 0.00 0.00
1:53 pm 13:53 Partly Cloudy 89 31.7 66 18.9 47 47 NE 9 15 30.10 1019 10 16 0.00 0.00
2:53 pm 14:53 Partly Cloudy 90 32.2 66 18.9 45 45 N 7 11 30.09 1019 10 16 0.00 0.00
3:53 pm 15:53 Sunny 91 32.8 65 18.3 42 42 VRB 7 11 30.06 1018 10 16 0.00 0.00
4:53 pm 16:53 Sunny 91 32.8 64 17.8 41 41 Calm 30.05 1018 10 16 0.00 0.00
5:53 pm 17:53 Sunny 90 32.2 63 17.2 41 41 SE 8 13 30.05 1018 10 16 0.00 0.00
6:53 pm 18:53 Sunny 88 31.1 63 17.2 43 43 E 7 11 30.05 1018 10 16 0.00 0.00
7:53 pm 19:53 Sunny 85 29.4 64 17.8 50 50 ENE 3 6 30.06 1018 10 16 0.00 0.00
8:53 pm 20:53 Clear 75 23.9 67 19.4 76 76 Calm 30.08 1019 10 16 0.00 0.00
9:53 pm 21:53 Clear 74 23.3 66 18.9 76 76 Calm 30.09 1019 10 16 0.00 0.00
10:53 pm 22:53 Clear 72 22.2 66 18.9 82 82 Calm 30.10 1019 10 16 0.00 0.00
11:53 pm 23:53 Clear 70 21.1 66 18.9 87 87 Calm 30.10 1019 10 16 0.00 0.00

Powered by AerisWeather